| time (UTC) | temp C | wind direction | speed KPH | gust KPH | rain 1hr cm | rain 24hr cm | rain mn cm | humidity % | barometer mb |
| 20260831043925 | 15 | 257 | 8.0 | 19.3 | 0.00 | 0.41 | 0.28 | 1 | 1005.1 |
| 20260831042856 | 15 | 242 | 8.0 | 19.3 | 0.00 | 0.41 | 0.28 | 1 | 1005.0 |
| 20260831041836 | 15 | 227 | 8.0 | 17.7 | 0.00 | 0.41 | 0.28 | 1 | 1004.8 |
| 20260831040838 | 15 | 246 | 9.7 | 22.5 | 0.00 | 0.41 | 0.28 | 1 | 1004.8 |
| 20260831035854 | 15 | 263 | 9.7 | 22.5 | 0.00 | 0.41 | 0.28 | 1 | 1004.9 |
| 20260831034847 | 15 | 200 | 9.7 | 22.5 | 0.00 | 0.41 | 0.28 | 1 | 1004.9 |
| 20260831033853 | 16 | 236 | 8.0 | 17.7 | 0.00 | 0.41 | 0.28 | 1 | 1004.9 |
| 20260831032851 | 16 | 261 | 8.0 | 25.7 | 0.00 | 0.41 | 0.28 | 1 | 1004.8 |
| 20260831031835 | 16 | 242 | 11.3 | 25.7 | 0.00 | 0.38 | 0.28 | 1 | 1004.7 |
| 20260831030809 | 16 | 229 | 8.0 | 19.3 | 0.00 | 0.38 | 0.28 | 1 | 1004.7 |
| 20260831023444 | 15 | 218 | 6.4 | 16.1 | 0.00 | 0.38 | 0.28 | 1 | 1004.8 |
| 20260831021329 | 15 | 192 | 4.8 | 12.9 | 0.08 | 0.38 | 0.28 | 1 | 1005.0 |
| 20260831014104 | 16 | 194 | 9.7 | 22.5 | 0.00 | 0.10 | 0.00 | 1 | 1005.4 |
| 20260831013041 | 16 | 186 | 8.0 | 19.3 | 0.00 | 0.10 | 0.00 | 1 | 1005.2 |
| 20260831012038 | 16 | 204 | 9.7 | 19.3 | 0.00 | 0.10 | 0.00 | 1 | 1005.3 |
| 20260831004658 | 16 | 175 | 6.4 | 22.5 | 0.00 | 0.10 | 0.00 | 1 | 1005.2 |
| 20260831003717 | 16 | 196 | 8.0 | 22.5 | 0.00 | 0.10 | 0.00 | 1 | 1005.5 |
| 20260831002643 | 16 | 186 | 6.4 | 19.3 | 0.00 | 0.10 | 0.00 | 1 | 1005.5 |
| 20260831001634 | 16 | 213 | 4.8 | 14.5 | 0.00 | 0.10 | 0.00 | 1 | 1005.6 |
| 20260831000626 | 16 | 200 | 3.2 | 12.9 | 0.00 | 0.10 | 0.00 | 1 | 1005.6 |
| 20260830235556 | 16 | 229 | 4.8 | 14.5 | 0.00 | 0.10 | 0.00 | 1 | 1005.7 |
| 20260830234529 | 16 | 207 | 4.8 | 16.1 | 0.00 | 0.10 | 0.00 | 1 | 1005.9 |
| 20260830233516 | 16 | 223 | 4.8 | 16.1 | 0.00 | 0.10 | 0.00 | 1 | 1006.0 |
| 20260830232445 | 16 | 218 | 3.2 | 14.5 | 0.00 | 0.10 | 0.00 | 1 | 1006.1 |
| 20260830230330 | 17 | 246 | 4.8 | 17.7 | 0.00 | 0.10 | 0.00 | 1 | 1006.2 |
| 20260830225331 | 17 | 269 | 6.4 | 19.3 | 0.00 | 0.10 | 0.10 | 1 | 1006.1 |
| 20260830224340 | 17 | 248 | 8.0 | 22.5 | 0.00 | 0.10 | 0.10 | 1 | 1006.1 |
| 20260830223358 | 17 | 246 | 8.0 | 22.5 | 0.08 | 0.10 | 0.10 | 1 | 1006.1 |
| 20260830222409 | 17 | 218 | 8.0 | 20.9 | 0.66 | 0.10 | 0.10 | 1 | 1006.0 |
| 20260830221336 | 17 | 167 | 8.0 | 20.9 | 0.00 | 0.08 | 0.08 | 1 | 1006.0 |
| 20260830220338 | 18 | 179 | 8.0 | 32.2 | 0.08 | 0.08 | 0.08 | 1 | 1006.1 |
| 20260830215349 | 18 | 233 | 11.3 | 32.2 | 0.18 | 0.08 | 0.08 | 1 | 1006.5 |
| 20260830214340 | 18 | 210 | 4.8 | 22.5 | 0.00 | 0.00 | 0.00 | 1 | 1006.4 |
| 20260830213403 | 18 | 201 | 1.6 | 8.0 | 0.00 | 0.00 | 0.00 | 1 | 1006.2 |
| 20260830212405 | 18 | 183 | 6.4 | 16.1 | 0.00 | 0.00 | 0.00 | 1 | 1006.4 |
| 20260830211354 | 18 | 211 | 6.4 | 17.7 | 0.00 | 0.00 | 0.00 | 1 | 1006.5 |
| 20260830210417 | 18 | 196 | 6.4 | 17.7 | 0.00 | 0.00 | 0.00 | 1 | 1006.6 |
| 20260830204304 | 18 | 171 | 6.4 | 16.1 | 0.00 | 0.00 | 0.00 | 1 | 1006.7 |
| 20260830203240 | 18 | 195 | 6.4 | 16.1 | 0.00 | 0.00 | 0.00 | 1 | 1006.8 |
| 20260830202247 | 18 | 198 | 8.0 | 16.1 | 0.00 | 0.00 | 0.00 | 1 | 1007.1 |
| 20260830201251 | 18 | 189 | 6.4 | 17.7 | 0.00 | 0.00 | 0.00 | 1 | 1007.0 |
| 20260830200226 | 18 | 170 | 6.4 | 17.7 | 0.00 | 0.00 | 0.00 | 1 | 1007.3 |
| 20260830191850 | 18 | 171 | 6.4 | 14.5 | 0.00 | 0.00 | 0.00 | 1 | 1007.3 |
| 20260830190822 | 18 | 178 | 8.0 | 16.1 | 0.00 | 0.00 | 0.00 | 1 | 1007.4 |
| 20260830185810 | 18 | 200 | 6.4 | 16.1 | 0.00 | 0.00 | 0.00 | 1 | 1007.3 |
| 20260830184832 | 18 | 232 | 8.0 | 16.1 | 0.00 | 0.00 | 0.00 | 1 | 1007.3 |
| 20260830183811 | 19 | 189 | 9.7 | 20.9 | 0.00 | 0.00 | 0.00 | 1 | 1007.3 |
| 20260830181651 | 19 | 192 | 11.3 | 25.7 | 0.00 | 0.00 | 0.00 | 1 | 1007.2 |
| 20260830180643 | 19 | 227 | 11.3 | 24.1 | 0.00 | 0.00 | 0.00 | 1 | 1007.2 |
| 20260830175646 | 20 | 171 | 11.3 | 24.1 | 0.00 | 0.00 | 0.00 | 1 | 1007.2 |
| 20260830174618 | 20 | 196 | 6.4 | 14.5 | 0.00 | 0.00 | 0.00 | 1 | 1007.3 |
| 20260830171322 | 20 | 209 | 4.8 | 20.9 | 0.00 | 0.00 | 0.00 | 1 | 1007.7 |
| 20260830170329 | 20 | 200 | 8.0 | 20.9 | 0.00 | 0.00 | 0.00 | 1 | 1007.8 |
| 20260830165317 | 20 | 181 | 8.0 | 20.9 | 0.00 | 0.00 | 0.00 | 1 | 1007.9 |
| 20260830164335 | 20 | 225 | 6.4 | 24.1 | 0.00 | 0.00 | 0.00 | 1 | 1008.0 |
| 20260830163319 | 20 | 224 | 11.3 | 24.1 | 0.00 | 0.00 | 0.00 | 1 | 1008.1 |
| 20260830162316 | 21 | 170 | 8.0 | 22.5 | 0.00 | 0.00 | 0.00 | 1 | 1008.1 |
| 20260830160206 | 21 | 198 | 9.7 | 24.1 | 0.00 | 0.00 | 0.00 | 1 | 1008.1 |
| 20260830155219 | 22 | 180 | 11.3 | 24.1 | 0.00 | 0.00 | 0.00 | 1 | 1008.0 |
| 20260830154231 | 22 | 219 | 11.3 | 22.5 | 0.00 | 0.00 | 0.00 | 1 | 1008.0 |
| 20260830153242 | 21 | 186 | 12.9 | 22.5 | 0.00 | 0.00 | 0.00 | 1 | 1008.2 |
| 20260830152250 | 21 | 161 | 12.9 | 25.7 | 0.00 | 0.00 | 0.00 | 1 | 1008.2 |
| 20260830151229 | 21 | 211 | 16.1 | 30.6 | 0.00 | 0.00 | 0.00 | 1 | 1008.2 |
| 20260830150252 | 21 | 209 | 12.9 | 30.6 | 0.00 | 0.00 | 0.00 | 1 | 1008.3 |
| 20260830145307 | 21 | 248 | 12.9 | 24.1 | 0.00 | 0.00 | 0.00 | 1 | 1008.4 |
| 20260830143132 | 22 | 176 | 12.9 | 29.0 | 0.00 | 0.00 | 0.00 | 1 | 1008.4 |
| 20260830142146 | 21 | 190 | 11.3 | 25.7 | 0.00 | 0.00 | 0.00 | 1 | 1008.6 |
| 20260830141124 | 21 | 198 | 14.5 | 29.0 | 0.00 | 0.00 | 0.00 | 1 | 1008.6 |
| 20260830140137 | 22 | 217 | 14.5 | 29.0 | 0.00 | 0.00 | 0.00 | 1 | 1008.6 |
| 20260830135137 | 22 | 181 | 12.9 | 25.7 | 0.00 | 0.08 | 0.00 | 1 | 1008.6 |
| 20260830134117 | 21 | 164 | 12.9 | 33.8 | 0.00 | 0.23 | 0.00 | 1 | 1008.8 |
| 20260830132011 | 22 | 174 | 12.9 | 24.1 | 0.00 | 0.25 | 0.00 | 1 | 1008.8 |
| 20260830131022 | 22 | 191 | 11.3 | 25.7 | 0.00 | 0.25 | 0.00 | 1 | 1008.9 |
| 20260830130038 | 22 | 202 | 11.3 | 25.7 | 0.00 | 0.25 | 0.00 | 1 | 1008.8 |
| 20260830125054 | 22 | 219 | 8.0 | 19.3 | 0.00 | 0.25 | 0.00 | 1 | 1008.9 |
| 20260830124102 | 22 | 214 | 9.7 | 19.3 | 0.00 | 0.25 | 0.00 | 1 | 1008.9 |
| 20260830123115 | 23 | 162 | 8.0 | 22.5 | 0.00 | 0.25 | 0.00 | 1 | 1008.8 |
| 20260830122043 | 22 | 205 | 11.3 | 22.5 | 0.00 | 0.25 | 0.00 | 1 | 1008.9 |
| 20260830121052 | 23 | 271 | 11.3 | 22.5 | 0.00 | 0.28 | 0.00 | 1 | 1009.0 |
| 20260830120049 | 22 | 250 | 6.4 | 17.7 | 0.00 | 0.30 | 0.00 | 1 | 1008.9 |
| 20260830115104 | 22 | 202 | 6.4 | 17.7 | 0.00 | 0.30 | 0.00 | 1 | 1009.0 |
| 20260830114045 | 22 | 236 | 8.0 | 20.9 | 0.00 | 0.30 | 0.00 | 1 | 1009.0 |
| 20260830110832 | 23 | 219 | 6.4 | 16.1 | 0.00 | 0.30 | 0.00 | 5 | 1009.3 |
| 20260830105803 | 23 | 244 | 8.0 | 19.3 | 0.00 | 0.30 | 0.00 | 7 | 1009.4 |
| 20260830104743 | 23 | 239 | 8.0 | 20.9 | 0.00 | 0.30 | 0.00 | 1 | 1009.4 |
| 20260830103724 | 22 | 229 | 8.0 | 24.1 | 0.00 | 0.30 | 0.00 | 1 | 1009.3 |
| 20260830102706 | 22 | 207 | 9.7 | 24.1 | 0.00 | 0.30 | 0.00 | 1 | 1009.5 |
| 20260830101636 | 22 | 281 | 6.4 | 17.7 | 0.00 | 0.33 | 0.00 | 1 | 1009.5 |
| 20260830100627 | 22 | 161 | 8.0 | 17.7 | 0.00 | 0.33 | 0.00 | 1 | 1009.5 |
| 20260830093420 | 22 | 273 | 6.4 | 16.1 | 0.00 | 0.36 | 0.00 | 1 | 1009.6 |
| 20260830092408 | 22 | 265 | 6.4 | 22.5 | 0.00 | 0.36 | 0.00 | 1 | 1009.5 |
| 20260830091339 | 21 | 276 | 6.4 | 22.5 | 0.00 | 0.36 | 0.00 | 1 | 1009.5 |
| 20260830085250 | 21 | 259 | 6.4 | 19.3 | 0.00 | 0.38 | 0.00 | 1 | 1009.7 |
| 20260830083132 | 20 | 282 | 8.0 | 20.9 | 0.00 | 0.38 | 0.00 | 1 | 1009.5 |
| 20260830081004 | 20 | 250 | 8.0 | 22.5 | 0.00 | 0.38 | 0.00 | 1 | 1009.4 |
| 20260830080011 | 20 | 239 | 6.4 | 19.3 | 0.00 | 0.38 | 0.00 | 1 | 1009.3 |
| 20260830074956 | 19 | 271 | 6.4 | 17.7 | 0.00 | 0.38 | 0.00 | 1 | 1009.3 |
| 20260830073930 | 18 | 248 | 8.0 | 17.7 | 0.00 | 0.38 | 0.00 | 1 | 1009.2 |
| 20260830071806 | 18 | 277 | 8.0 | 20.9 | 0.00 | 0.38 | 0.00 | 1 | 1009.0 |
| 20260830064525 | 17 | 256 | 6.4 | 20.9 | 0.00 | 0.38 | 0.00 | 1 | 1008.6 |
| 20260830063459 | 17 | 249 | 8.0 | 20.9 | 0.00 | 0.38 | 0.00 | 1 | 1008.6 |
| 20260830062504 | 17 | 267 | 6.4 | 17.7 | 0.00 | 0.38 | 0.00 | 1 | 1008.5 |
| 20260830061515 | 17 | 254 | 8.0 | 22.5 | 0.00 | 0.38 | 0.00 | 1 | 1008.3 |
| 20260830060508 | 17 | 265 | 8.0 | 22.5 | 0.00 | 0.38 | 0.00 | 1 | 1008.2 |
| 20260830055528 | 17 | 250 | 8.0 | 19.3 | 0.00 | 0.38 | 0.00 | 1 | 1008.1 |
| 20260830053404 | 17 | 246 | 9.7 | 22.5 | 0.00 | 0.38 | 0.00 | 1 | 1008.1 |
| 20260830051312 | 17 | 259 | 8.0 | 19.3 | 0.00 | 0.38 | 0.00 | 1 | 1007.8 |